Red Bluff, CA

9:32 PM PST on November 16, 2019 (GMT -0800)
Red Bluff Municipal

Weather History for KRBL - September, 2019

Change the Weather History Date:

Thursday, September 5, 2019

  Actual Average Record
Temperature  
Mean Temperature 82 °F -  
Max Temperature 98 °F 95 °F 115 °F (1988)
Min Temperature 66 °F 62 °F 50 °F (1946)
Cooling Degree Days 17    
Growing Degree Days 32 (Base 50)    
Moisture  
Dew Point 48 °F    
Average Humidity 32    
Maximum Humidity 56    
Minimum Humidity 10    
Precipitation  
Precipitation 0.00 in - - ()
Sea Level Pressure  
Sea Level Pressure 29.88 in    
Wind  
Wind Speed 7 mph (SW)    
Max Wind Speed 23 mph    
Max Gust Speed 29 mph    
Visibility 10 miles    
Events      
Averages and records for this station are not official NWS values.
T = Trace of Precipitation, MM = Missing Value Source: NWS Daily Summary

Daily Weather History Graph

Daily Weather History Graph

Search for Another Location

Airport or City:

Astronomy

Sep. 05, 2019 Rise Set
Actual Time 6:40 AM PDT 7:34 PM PDT
Civil Twilight 6:12 AM PDT 8:01 PM PDT
Nautical Twilight 5:39 AM PDT 8:34 PM PDT
Astronomical Twilight 5:05 AM PDT 9:08 PM PDT
Moon 1:53 PM PDT (9/5) 11:53 PM PDT (9/5)
Length of Visible Light 13h 49m
Length of Day
12h 54m
Waxing Crescent, 46% of the Moon is Illuminated
Sep 5
Waxing Crescent
Sep 5
First Quarter
Sep 13
Full
Sep 21
Last Quarter
Sep 28
New

Hourly Weather History & Observations

Time (PDT) Temp. Heat Index Dew Point Humidity Pressure Visibility Wind Dir Wind Speed Gust Speed Precip Events Conditions
12:54 AM 73.9 °F - 50.0 °F 43% 29.84 in 10.0 mi WNW 5.8 mph - N/A   Clear
1:54 AM 73.9 °F - 50.0 °F 43% 29.85 in 10.0 mi WNW 6.9 mph - N/A   Clear
2:54 AM 73.9 °F - 51.1 °F 45% 29.84 in 10.0 mi WNW 5.8 mph - N/A   Clear
3:54 AM 69.1 °F - 51.1 °F 53% 29.85 in 10.0 mi NNW 4.6 mph - N/A   Clear
4:54 AM 70.0 °F - 52.0 °F 53% 29.86 in 10.0 mi NW 5.8 mph - N/A   Clear
5:54 AM 70.0 °F - 51.1 °F 51% 29.86 in 10.0 mi NW 5.8 mph - N/A   Clear
6:54 AM 68.0 °F - 52.0 °F 56% 29.87 in 10.0 mi NNW 3.5 mph - N/A   Clear
7:54 AM 72.0 °F - 53.1 °F 51% 29.90 in 10.0 mi NNW 3.5 mph - N/A   Clear
8:54 AM 79.0 °F - 53.1 °F 40% 29.90 in 10.0 mi NNW 4.6 mph - N/A   Clear
9:54 AM 82.9 °F - 50.0 °F 32% 29.90 in 10.0 mi NE 3.5 mph - N/A   Clear
10:54 AM 87.1 °F - 51.1 °F 29% 29.90 in 10.0 mi Calm Calm - N/A   Clear
11:54 AM 90.0 °F 87.5 °F 53.1 °F 28% 29.90 in 10.0 mi Calm Calm - N/A   Clear
12:54 PM 93.9 °F - 50.0 °F 22% 29.89 in 10.0 mi SE 11.5 mph 23.0 mph N/A   Clear
1:54 PM 95.0 °F - 48.9 °F 21% 29.89 in 10.0 mi SE 16.1 mph 23.0 mph N/A   Clear
2:54 PM 97.0 °F - 44.1 °F 16% 29.87 in 10.0 mi SSE 15.0 mph - N/A   Clear
3:54 PM 97.0 °F - 43.0 °F 16% 29.86 in 10.0 mi SE 23.0 mph 28.8 mph N/A   Clear
4:54 PM 96.1 °F - 46.0 °F 18% 29.85 in 10.0 mi SSE 17.3 mph - N/A   Clear
5:54 PM 93.0 °F - 42.1 °F 17% 29.85 in 10.0 mi SSE 20.7 mph 26.5 mph N/A   Clear
6:54 PM 90.0 °F - 41.0 °F 18% 29.86 in 10.0 mi South 10.4 mph - N/A   Clear
7:54 PM 87.1 °F - 39.9 °F 19% 29.87 in 10.0 mi South 11.5 mph - N/A   Clear
8:54 PM 82.9 °F - 44.1 °F 25% 29.89 in 10.0 mi South 8.1 mph - N/A   Clear
9:54 PM 78.1 °F - 46.0 °F 32% 29.91 in 10.0 mi SW 4.6 mph - N/A   Clear
10:54 PM 79.0 °F - 46.9 °F 32% 29.91 in 10.0 mi South 9.2 mph - N/A   Clear
11:54 PM 73.9 °F - 48.0 °F 40% 29.92 in 10.0 mi SSW 6.9 mph - N/A   Clear